Probability
45 61 100 100 100 100 100 100 100 100 100 100 100 100 100 100 100 100 97 97 100 97 97 94 90 84 77 84 84 84 87 90 90 90 87 84 97 90 87 87 84 87 87
52 74 100 100 100 100 100 100 100 100 100 100 100 100 100 97 100 97 97 97 94 90 94 90 87 77 81 84 84 84 84 84 84 94 94 90 90 87 84 84 90 84 90
48 68 97 100 100 100 100 100 100 100 100 100 100 100 100 100 100 97 100 97 90 81 81 84 87 84 87 87 87 77 87 84 87 94 94 87 87 84 81 90 87 87 87
42 58 81 100 100 100 100 100 100 100 100 100 100 100 100 100 100 100 100 97 87 87 84 77 81 81 81 87 87 87 87 81 87 94 97 84 71 81 81 84 77 87 84
39 55 97 100 100 100 97 97 97 97 97 97 97 97 100 97 97 100 94 87 84 84 81 81 77 84 84 84 81 74 71 77 87 90 81 74 84 87 87 87 84 87 90
45 65 94 94 97 94 94 94 97 97 97 97 97 97 94 90 90 90 90 87 74 84 77 71 77 74 77 84 81 77 71 84 84 77 74 77 74 84 87 87 90 74 74
65 58 84 94 94 94 94 94 94 94 94 97 94 97 94 94 90 94 84 77 77 77 77 74 74 77 71 74 74 77 74 81 87 81 81 71 81 94 87 87 87 71 65
65 42 84 94 94 97 97 97 94 97 97 94 94 90 90 90 90 87 84 81 81 74 71 71 71 71 71 74 77 84 84 90 81 68 61 68 81 87 87 84 84 74 65
65 52 68 84 90 94 94 94 94 97 94 94 84 87 87 87 87 87 77 74 81 81 77 71 68 74 87 81 81 84 84 94 77 65 68 71 77 84 84 87 81 77 71
74 61 52 48 74 84 94 94 94 94 90 90 87 81 77 77 90 90 90 90 81 84 84 87 94 84 81 84 84 90 94 94 55 48 55 77 84 81 87 84 84 77 77
77 65 65 58 74 65 68 84 87 87 87 84 74 77 81 84 84 84 84 84 81 77 81 84 87 94 90 87 90 87 87 58 45 45 52 77 84 81 84 84 81 81 77
74 71 65 61 71 68 68 87 90 81 87 81 81 84 90 90 81 74 74 84 87 87 84 81 87 90 87 77 77 87 68 52 42 55 45 81 74 77 77 84 77 68 68
77 74 65 65 65 71 84 77 87 87 87 84 87 84 84 84 84 81 81 77 81 81 81 87 84 81 74 68 74 71 58 39 42 52 45 68 71 71 74 81 71 71 61
81 74 71 74 74 77 84 81 81 84 94 74 84 81 81 81 81 81 84 81 81 81 81 77 87 71 68 74 52 52 58 55 52 52 65 71 61 65 61 61 61 61 58
74 68 68 81 84 87 87 87 81 84 87 81 81 81 81 81 81 74 74 81 74 74 74 74 68 71 68 55 58 45 52 55 48 45 55 68 71 61 61 55 65 58 55
77 81 81 81 81 84 84 84 84 81 81 81 81 77 77 77 81 74 77 74 74 74 74 74 71 61 61 65 65 65 58 52 55 48 48 61 68 61 61 68 68 65 55
77 77 77 81 84 84 84 84 81 81 77 77 74 71 68 65 74 77 77 71 71 74 74 74 71 71 55 52 61 58 58 68 55 52 52 48 52 58 68 71 71 65 58
77 81 81 71 84 84 84 81 81 74 77 74 74 68 61 61 58 68 68 71 71 71 68 74 71 61 52 48 52 48 58 58 55 55 48 55 55 52 58 68 71 65 61
74 77 77 74 84 81 81 77 77 74 71 71 68 65 61 58 55 58 65 61 61 55 58 45 58 48 45 45 45 45 48 52 55 52 55 52 55 58 52 52 55 61 61
74 71 74 71 74 71 71 74 74 71 65 58 61 58 45 48 45 52 52 58 48 52 52 52 52 48 45 48 35 29 39 42 48 48 48 52 58 55 42 32 39 42 52
68 68 68 68 65 68 68 65 68 65 61 58 52 52 45 45 45 45 45 52 48 55 55 45 39 39 35 42 32 29 32 26 35 42 52 52 45 48 29 29 35 29 19
68 61 58 65 65 61 61 68 61 61 61 58 52 52 42 42 45 39 48 48 45 52 45 48 42 39 32 32 32 29 16 26 35 29 42 42 32 35 35 19 19 19 16
52 58 55 58 58 55 58 58 58 61 48 45 48 48 45 45 45 45 48 48 45 42 45 45 39 35 32 32 32 29 23 13 19 26 26 32 35 35 29 26 19 16 16
45 52 45 55 52 52 48 52 52 45 39 42 45 45 42 42 39 39 39 39 45 39 39 35 35 39 32 23 32 29 26 13 10 10 16 19 26 29 19 10 10 10 16
32 32 42 42 42 45 42 42 42 42 42 39 32 35 32 32 32 26 29 26 35 35 35 35 35 35 32 29 29 26 26 23 13 0 0 10 13 23 23 13 10 10 13
29 39 39 42 45 42 45 39 39 39 39 32 29 26 26 29 29 29 26 29 29 26 32 35 35 32 32 29 29 26 23 16 13 6 0 3 6 10 19 13 13 10 6
Height
5907 5907 5906 5906 5905 5905 5905 5904 5904 5903 5903 5902 5902 5901 5900 5899 5898 5897 5897 5896 5895 5895 5894 5893 5893 5892 5892 5891 5890 5889 5889 5888 5888 5887 5887 5887 5886 5886 5886 5886 5886 5886 5886
5907 5906 5906 5905 5905 5904 5904 5903 5903 5903 5902 5901 5901 5900 5899 5898 5897 5897 5896 5895 5894 5894 5893 5893 5892 5892 5891 5890 5890 5889 5888 5888 5888 5887 5887 5886 5886 5886 5885 5885 5885 5886 5886
5906 5905 5905 5904 5904 5903 5903 5902 5902 5901 5901 5900 5899 5899 5898 5897 5896 5895 5895 5894 5893 5893 5892 5892 5891 5891 5890 5890 5889 5888 5888 5887 5887 5887 5886 5886 5885 5885 5885 5885 5885 5885 5885
5905 5904 5904 5903 5902 5902 5901 5901 5900 5900 5899 5898 5898 5897 5896 5895 5894 5894 5893 5892 5892 5891 5891 5890 5890 5889 5889 5888 5888 5887 5887 5886 5886 5886 5886 5885 5884 5884 5884 5884 5884 5884 5884
5904 5903 5902 5902 5901 5900 5900 5899 5899 5898 5897 5897 5896 5895 5895 5894 5893 5892 5892 5891 5890 5890 5889 5889 5888 5888 5887 5887 5886 5886 5886 5885 5885 5884 5884 5884 5883 5883 5883 5883 5883 5883 5883
5902 5901 5901 5900 5899 5899 5898 5897 5897 5896 5895 5895 5894 5893 5893 5892 5891 5890 5890 5889 5888 5888 5887 5887 5887 5886 5886 5885 5885 5884 5884 5883 5883 5883 5882 5882 5881 5882 5882 5882 5882 5882 5882
5900 5899 5899 5898 5897 5897 5896 5895 5895 5894 5893 5893 5892 5891 5890 5890 5889 5888 5887 5887 5886 5886 5885 5885 5885 5884 5884 5883 5883 5882 5882 5881 5881 5881 5881 5880 5880 5880 5881 5881 5881 5881 5881
5898 5897 5896 5895 5895 5894 5894 5893 5892 5892 5891 5890 5889 5889 5888 5887 5886 5886 5885 5884 5884 5883 5883 5882 5882 5882 5882 5881 5881 5880 5880 5879 5879 5879 5879 5878 5878 5879 5879 5879 5879 5879 5879
5896 5894 5893 5892 5892 5891 5891 5890 5889 5889 5888 5887 5887 5886 5885 5884 5884 5883 5883 5882 5881 5881 5880 5880 5879 5879 5879 5878 5878 5878 5878 5877 5877 5877 5877 5876 5875 5876 5877 5877 5877 5877 5877
5892 5891 5890 5890 5889 5888 5887 5887 5886 5885 5885 5884 5884 5883 5882 5882 5881 5880 5880 5879 5879 5878 5878 5877 5876 5876 5876 5876 5875 5875 5875 5874 5874 5874 5874 5873 5873 5873 5874 5875 5875 5875 5875
5888 5888 5887 5886 5886 5885 5884 5883 5883 5882 5881 5881 5880 5880 5879 5879 5878 5878 5877 5876 5876 5875 5874 5874 5873 5873 5872 5872 5872 5872 5871 5871 5871 5871 5870 5870 5870 5870 5871 5872 5872 5872 5872
5884 5884 5884 5883 5882 5882 5881 5880 5879 5878 5878 5877 5877 5876 5876 5875 5875 5874 5874 5873 5872 5872 5871 5870 5870 5869 5869 5869 5868 5868 5868 5867 5867 5867 5867 5867 5867 5867 5868 5869 5869 5869 5869
5881 5879 5880 5879 5879 5878 5877 5875 5873 5874 5873 5873 5873 5872 5872 5871 5871 5871 5870 5869 5868 5868 5867 5866 5866 5865 5865 5865 5864 5864 5864 5863 5863 5863 5863 5863 5864 5864 5864 5865 5865 5865 5866
5878 5877 5876 5875 5875 5874 5873 5872 5869 5869 5869 5869 5869 5868 5867 5867 5866 5866 5866 5865 5864 5863 5863 5862 5862 5861 5861 5860 5860 5860 5860 5860 5859 5859 5860 5860 5860 5859 5860 5861 5861 5862 5862
5874 5873 5872 5871 5870 5869 5868 5867 5866 5865 5865 5864 5864 5863 5863 5862 5862 5861 5861 5860 5860 5859 5858 5858 5857 5856 5855 5855 5855 5855 5855 5855 5855 5854 5854 5855 5855 5855 5856 5857 5857 5857 5857
5869 5868 5868 5866 5865 5864 5863 5863 5861 5861 5860 5859 5858 5858 5857 5857 5857 5856 5856 5855 5855 5854 5853 5853 5852 5851 5851 5850 5850 5851 5850 5850 5850 5850 5849 5850 5850 5851 5851 5852 5852 5852 5853
5864 5863 5862 5861 5861 5860 5858 5857 5856 5855 5855 5854 5853 5852 5852 5851 5851 5850 5850 5850 5849 5849 5848 5847 5847 5846 5846 5846 5846 5845 5845 5845 5845 5845 5845 5845 5845 5845 5846 5846 5847 5847 5848
5860 5859 5858 5856 5855 5854 5853 5852 5851 5850 5849 5849 5848 5847 5846 5846 5845 5845 5844 5844 5844 5843 5843 5842 5842 5842 5841 5841 5840 5840 5840 5840 5839 5839 5839 5839 5840 5840 5840 5840 5841 5841 5842
5854 5853 5852 5851 5850 5849 5848 5847 5846 5845 5844 5843 5842 5841 5840 5840 5839 5839 5839 5839 5838 5837 5837 5836 5836 5836 5835 5835 5835 5834 5834 5834 5834 5833 5833 5834 5834 5835 5835 5835 5835 5835 5836
5849 5848 5846 5845 5844 5844 5843 5842 5840 5839 5838 5837 5836 5835 5834 5834 5833 5833 5833 5832 5832 5832 5831 5831 5830 5829 5829 5828 5828 5828 5828 5828 5827 5827 5827 5828 5828 5828 5829 5829 5830 5830 5831
5843 5842 5840 5839 5838 5838 5837 5835 5834 5832 5832 5831 5830 5829 5828 5828 5827 5827 5826 5826 5826 5825 5825 5824 5824 5823 5822 5822 5821 5821 5821 5820 5821 5821 5821 5821 5822 5822 5822 5822 5824 5824 5825
5836 5835 5834 5833 5833 5832 5830 5829 5828 5827 5825 5825 5825 5824 5823 5822 5821 5821 5820 5820 5820 5819 5818 5817 5817 5817 5816 5815 5814 5814 5814 5815 5814 5814 5814 5815 5815 5815 5815 5816 5817 5818 5818
5829 5828 5827 5827 5826 5825 5823 5822 5822 5821 5819 5819 5818 5818 5817 5817 5816 5815 5814 5813 5813 5812 5811 5810 5810 5810 5809 5808 5807 5807 5807 5807 5807 5807 5807 5808 5808 5808 5809 5810 5810 5811 5812
5822 5822 5821 5820 5819 5818 5817 5816 5815 5814 5813 5812 5812 5811 5811 5810 5809 5808 5807 5806 5805 5805 5804 5803 5803 5802 5802 5802 5801 5800 5800 5799 5800 5800 5801 5801 5801 5801 5802 5802 5803 5804 5805
5817 5817 5815 5813 5812 5811 5810 5809 5808 5808 5807 5806 5805 5804 5804 5804 5803 5802 5800 5799 5798 5798 5797 5796 5795 5795 5794 5794 5793 5793 5792 5792 5792 5793 5794 5794 5794 5795 5795 5796 5796 5797 5798
5811 5810 5808 5807 5806 5805 5804 5803 5802 5801 5800 5799 5798 5798 5797 5797 5796 5795 5794 5792 5791 5790 5790 5789 5788 5787 5786 5786 5786 5785 5785 5786 5785 5786 5786 5787 5787 5788 5788 5789 5790 5790 5792
Wind_Speed
7 7 7 7 7 7 7 7 7 7 8 8 8 8 7 7 6 6 5 5 4 4 4 4 4 4 4 4 4 4 4 4 4 4 4 4 4 3 2 2 2 2 2
8 8 9 8 9 8 8 8 8 9 9 9 9 9 8 8 8 7 7 6 6 5 5 5 4 5 5 5 5 5 5 4 4 4 4 4 4 4 3 2 2 2 3
9 10 10 10 10 10 10 10 10 10 10 10 10 10 9 9 9 9 8 8 7 7 6 6 5 5 5 5 5 5 5 5 5 5 5 5 5 4 3 3 3 3 3
11 11 11 11 11 11 11 11 11 11 11 11 11 10 10 10 10 9 9 9 8 8 8 7 6 6 6 6 6 6 6 6 6 6 6 5 5 5 4 4 4 4 4
12 12 12 12 12 12 12 12 12 12 12 12 12 12 11 11 11 10 10 9 9 9 9 8 8 8 8 8 8 8 8 7 7 7 6 6 6 6 5 5 5 5 5
12 12 13 13 13 13 13 13 13 13 13 13 13 13 13 12 12 11 10 10 10 10 10 10 10 9 9 9 9 9 9 9 9 8 7 7 7 7 6 7 7 7 7
13 13 13 14 14 13 14 14 14 14 14 14 14 14 14 13 12 12 11 11 11 11 11 11 11 11 11 11 10 11 11 11 10 9 9 9 9 9 8 8 9 9 8
14 14 14 15 15 15 15 15 15 16 16 16 15 15 14 14 13 13 13 13 13 13 12 13 13 13 13 12 12 12 12 12 12 11 11 10 11 11 10 10 10 10 10
16 16 16 16 16 17 17 17 17 17 17 16 16 16 16 15 14 14 14 14 14 14 14 14 14 14 14 14 13 13 13 14 14 13 12 13 12 12 11 11 11 11 11
17 17 18 17 17 17 18 18 18 18 17 17 17 17 17 16 15 15 15 15 15 15 15 15 15 16 16 16 15 15 14 15 15 15 14 14 12 12 13 13 12 12 13
19 18 19 19 19 19 19 20 20 19 19 18 19 19 18 18 17 17 16 16 16 16 16 16 16 16 17 17 17 17 16 16 15 16 15 15 14 14 14 15 14 14 14
20 20 18 19 20 20 20 21 21 20 20 21 21 21 20 20 19 18 18 18 18 18 17 18 18 18 18 18 18 18 18 18 17 17 16 17 17 16 16 16 16 16 15
21 20 20 20 21 21 21 22 21 21 22 22 23 23 22 22 21 20 20 19 19 18 18 19 19 19 19 18 19 19 20 20 19 19 19 19 19 19 19 18 18 18 17
22 21 22 21 22 23 22 22 22 22 23 23 24 24 24 24 23 22 21 21 20 20 19 19 19 20 20 20 19 19 20 20 21 21 21 21 20 21 20 19 20 20 19
21 22 22 23 23 24 23 23 24 25 24 24 25 25 25 25 24 23 22 23 22 21 21 20 20 20 20 20 20 20 20 21 22 21 21 21 22 22 22 21 21 21 22
22 22 23 23 24 24 24 24 25 26 26 26 26 26 26 26 25 24 24 24 24 23 23 22 21 20 20 21 22 22 22 22 22 23 23 23 23 23 23 23 23 22 21
23 23 23 24 25 24 24 26 26 27 27 28 27 26 27 27 27 27 25 25 24 24 23 23 22 21 22 22 23 23 22 23 23 23 24 24 23 23 24 24 23 23 22
24 24 25 26 26 26 26 26 26 28 28 29 28 28 28 28 27 27 26 25 25 24 24 24 23 23 23 23 24 24 23 23 24 25 25 24 24 24 24 24 23 24 24
25 26 26 27 26 26 26 27 27 28 29 29 29 29 28 28 28 27 26 26 25 25 24 24 24 25 25 25 26 25 25 24 25 25 26 25 24 24 24 25 25 25 25
27 27 27 27 27 27 28 28 29 29 29 29 29 28 27 27 28 27 26 26 27 26 25 26 26 26 26 27 26 26 25 25 25 25 25 25 25 24 24 25 26 26 26
27 28 28 28 28 29 30 30 30 29 30 30 29 28 28 28 28 27 27 26 26 27 27 27 27 27 27 28 27 27 26 26 26 26 25 25 25 25 25 26 26 26 26
26 28 29 29 30 31 31 31 30 30 29 29 29 28 28 28 29 28 27 26 27 27 27 26 27 27 27 27 27 27 27 27 26 26 26 26 26 26 26 26 27 27 27
28 29 29 30 30 30 31 30 30 30 29 29 29 28 28 28 28 29 28 27 27 28 27 27 27 27 27 27 27 26 26 26 26 26 26 26 26 26 26 26 26 26 26
27 28 29 30 30 30 30 30 30 29 29 29 30 29 29 28 28 28 28 28 27 27 27 28 28 28 28 28 28 27 27 26 26 26 26 25 25 26 26 26 25 25 25
29 28 29 29 30 30 30 30 30 30 30 30 29 29 28 28 27 28 28 28 28 27 27 27 28 28 29 29 28 28 27 26 26 26 26 26 25 25 25 25 25 25 26
28 27 27 28 29 29 30 31 31 31 30 29 29 28 27 27 27 28 28 28 28 28 27 27 28 28 28 28 28 27 27 26 26 27 26 25 25 25 25 25 25 25 25
Wind_Direction
306 300 299 297 293 292 292 292 295 296 296 295 292 291 290 289 290 291 293 296 299 305 312 316 321 327 328 329 333 336 338 339 337 333 332 335 339 340 335 311 271 268 254
307 305 299 295 292 289 290 292 293 293 293 293 291 289 288 288 288 289 288 288 291 295 299 305 309 315 319 320 319 318 320 321 320 319 320 323 323 320 312 287 271 265 256
303 304 300 294 290 287 288 290 290 290 290 288 287 285 285 286 285 286 287 287 289 292 294 295 298 302 305 307 306 303 303 306 307 308 309 317 313 308 295 283 269 258 256
298 299 296 293 290 288 286 287 287 289 289 288 286 284 284 285 285 285 287 288 288 290 290 288 289 292 296 294 292 292 291 293 297 299 302 304 305 303 294 283 273 261 258
299 299 296 293 290 288 286 285 286 288 289 289 287 287 286 286 285 285 285 287 288 288 287 286 285 285 287 288 284 285 285 285 285 288 292 290 290 295 288 285 281 270 260
301 299 296 293 290 288 287 287 287 287 287 287 288 289 288 287 286 285 285 287 287 287 286 285 285 284 284 285 283 279 279 280 279 279 285 287 288 291 284 285 284 276 266
297 297 294 290 288 287 287 287 287 286 286 286 288 288 287 286 285 283 284 284 283 282 282 282 283 283 282 281 282 278 274 276 278 280 281 280 284 284 279 280 281 278 269
295 296 293 289 286 285 284 285 285 285 286 285 286 287 285 283 281 281 281 281 280 280 280 281 281 280 277 277 278 277 274 273 275 277 277 277 278 279 281 281 279 274 269
294 293 292 289 287 284 283 284 284 285 286 285 285 286 284 281 279 278 280 280 279 279 281 281 280 279 278 277 277 277 276 274 272 273 273 274 277 276 276 279 279 273 269
294 293 291 289 288 286 285 286 286 285 285 285 284 285 284 281 279 278 279 279 280 279 280 280 281 279 277 276 277 278 278 276 274 272 271 270 271 272 275 275 275 275 271
293 293 291 290 289 287 286 287 286 285 285 285 285 284 283 281 279 278 278 279 279 279 278 279 281 280 277 275 275 275 275 275 275 272 270 269 268 269 272 272 271 272 271
291 290 289 289 290 288 286 285 284 285 286 285 285 284 283 282 281 279 279 281 280 279 279 279 278 279 277 274 273 273 273 273 272 270 268 270 270 269 272 271 269 270 270
294 290 291 291 289 288 286 284 284 284 286 286 286 284 282 280 280 280 278 279 279 279 281 282 280 277 276 274 274 273 273 272 271 270 267 267 268 268 270 271 270 269 267
294 291 291 290 288 287 287 287 287 287 288 287 286 284 281 279 279 280 280 279 280 279 280 282 282 282 276 274 273 273 273 274 273 270 267 267 269 268 269 270 270 269 266
291 290 289 288 288 288 286 286 286 288 288 287 286 284 283 281 280 280 281 281 281 280 281 282 282 285 282 278 274 274 274 274 274 273 271 270 270 270 270 270 270 270 267
290 287 287 288 288 286 285 285 286 287 289 288 286 282 282 282 279 278 281 282 282 281 282 282 283 283 282 279 276 276 276 277 277 275 272 270 271 271 271 269 267 268 269
291 289 287 286 286 284 284 285 287 288 288 288 287 284 283 282 280 277 281 282 282 282 282 282 282 283 282 281 280 279 277 278 277 276 275 273 271 270 271 268 266 266 266
289 288 285 284 284 283 284 284 286 287 287 287 286 284 283 282 281 279 281 281 282 282 282 281 282 282 282 282 282 281 280 279 278 276 275 275 272 270 270 269 268 265 263
287 287 285 283 283 283 284 285 286 287 287 287 287 284 280 279 280 279 280 280 282 282 281 280 280 281 283 283 283 282 280 279 279 277 276 274 271 271 270 268 268 267 265
285 285 285 283 281 281 283 285 285 285 285 286 287 282 278 277 278 280 281 281 280 281 280 278 280 281 283 284 283 282 280 278 279 277 274 272 271 271 270 268 266 267 265
281 283 283 282 281 281 283 284 285 284 284 284 284 284 281 278 279 281 279 280 280 280 280 280 280 281 282 283 281 280 280 279 276 274 274 273 273 272 271 270 267 267 266
280 281 282 281 283 282 283 283 284 283 283 283 284 285 284 282 281 280 280 279 280 280 280 279 279 280 282 282 281 279 278 276 275 274 273 273 273 272 270 269 267 266 266
281 283 283 283 284 284 284 284 284 284 283 281 282 283 284 284 282 279 279 278 279 279 279 279 279 279 281 282 281 281 279 275 273 273 272 271 271 272 271 268 266 266 266
286 284 282 282 283 283 282 282 285 285 284 283 283 286 284 282 281 280 279 279 278 279 279 281 281 278 280 280 279 280 279 275 274 273 272 271 271 272 272 269 266 265 265
288 286 282 280 281 282 280 280 282 282 284 282 284 286 284 283 283 282 282 282 280 280 281 282 282 280 279 278 278 278 277 276 275 275 273 271 272 271 271 270 267 266 266
288 287 282 279 280 280 279 280 281 282 285 286 285 283 284 285 285 285 284 283 281 279 280 281 283 282 279 278 277 276 274 274 274 274 272 272 271 270 270 270 270 268 266